| time (UTC) | temp F | wind direction | speed MPH | gust MPH | rain 1hr in | rain 24hr in | rain mn in | humidity % | barometer mb |
| 20260503231548 | 58 | 242 | 1.0 | 9.0 | 0.00 | 0.00 | 0.00 | 36 | 1009.8 |
| 20260503230051 | 59 | 267 | 0.0 | 10.0 | 0.00 | 0.00 | 0.00 | 35 | 1009.7 |
| 20260503224554 | 59 | 275 | 1.0 | 14.0 | 0.00 | 0.00 | 0.00 | 33 | 1009.6 |
| 20260503223050 | 60 | 271 | 4.0 | 18.0 | 0.00 | 0.00 | 0.00 | 33 | 1009.5 |
| 20260503221557 | 60 | 0 | 2.0 | 16.0 | 0.00 | 0.00 | 0.00 | 34 | 1009.5 |
| 20260503220051 | 60 | 268 | 1.0 | 14.0 | 0.00 | 0.00 | 0.00 | 32 | 1009.5 |
| 20260503214545 | 59 | 253 | 3.0 | 16.0 | 0.00 | 0.00 | 0.00 | 34 | 1009.6 |
| 20260503213049 | 60 | 265 | 5.0 | 13.0 | 0.00 | 0.00 | 0.00 | 32 | 1009.5 |
| 20260503211546 | 60 | 263 | 1.0 | 10.0 | 0.00 | 0.00 | 0.00 | 34 | 1009.5 |
| 20260503210050 | 59 | 258 | 4.0 | 16.0 | 0.00 | 0.00 | 0.00 | 33 | 1009.5 |
| 20260503204550 | 59 | 267 | 9.0 | 18.0 | 0.00 | 0.00 | 0.00 | 33 | 1009.4 |
| 20260503203055 | 60 | 311 | 3.0 | 10.0 | 0.00 | 0.00 | 0.00 | 34 | 1009.5 |
| 20260503201551 | 58 | 285 | 4.0 | 13.0 | 0.00 | 0.00 | 0.00 | 35 | 1009.5 |
| 20260503200054 | 58 | 274 | 3.0 | 17.0 | 0.00 | 0.00 | 0.00 | 36 | 1009.6 |
| 20260503194557 | 58 | 290 | 3.0 | 18.0 | 0.00 | 0.00 | 0.00 | 37 | 1009.8 |
| 20260503193049 | 57 | 234 | 7.0 | 15.0 | 0.00 | 0.00 | 0.00 | 36 | 1009.8 |
| 20260503191553 | 57 | 0 | 2.0 | 13.0 | 0.00 | 0.00 | 0.00 | 38 | 1010.0 |
| 20260503190048 | 57 | 0 | 2.0 | 13.0 | 0.00 | 0.00 | 0.00 | 39 | 1009.9 |
| 20260503184548 | 56 | 261 | 4.0 | 16.0 | 0.00 | 0.00 | 0.00 | 39 | 1010.1 |
| 20260503183053 | 55 | 285 | 2.0 | 10.0 | 0.00 | 0.00 | 0.00 | 42 | 1010.3 |
| 20260503181547 | 53 | 303 | 2.0 | 18.0 | 0.00 | 0.00 | 0.00 | 44 | 1010.5 |
| 20260503180058 | 54 | 244 | 2.0 | 20.0 | 0.00 | 0.00 | 0.00 | 45 | 1010.6 |
| 20260503174601 | 53 | 266 | 4.0 | 15.0 | 0.00 | 0.00 | 0.00 | 44 | 1010.7 |
| 20260503173107 | 53 | 0 | 3.0 | 13.0 | 0.00 | 0.00 | 0.00 | 44 | 1010.8 |
| 20260503171551 | 53 | 299 | 4.0 | 13.0 | 0.00 | 0.00 | 0.00 | 46 | 1010.8 |
| 20260503110106 | 43 | 0 | 0.0 | 1.0 | 0.00 | 0.00 | 0.00 | 67 | 1010.8 |
| 20260503081544 | 44 | 0 | 0.0 | 2.0 | 0.00 | 0.04 | 0.00 | 67 | 1010.0 |
| 20260503071603 | 44 | 0 | 0.0 | 0.0 | 0.00 | 0.04 | 0.00 | 67 | 1010.1 |
| 20260503060105 | 47 | 0 | 0.0 | 1.0 | 0.00 | 0.04 | 0.00 | 59 | 1010.3 |
| 20260503054556 | 47 | 0 | 0.0 | 2.0 | 0.00 | 0.04 | 0.00 | 59 | 1010.3 |
| 20260503053046 | 48 | 0 | 0.0 | 4.0 | 0.00 | 0.04 | 0.00 | 58 | 1010.6 |
| 20260503051542 | 48 | 0 | 0.0 | 3.0 | 0.00 | 0.04 | 0.00 | 56 | 1010.6 |
| 20260503050049 | 48 | 0 | 0.0 | 4.0 | 0.00 | 0.04 | 0.00 | 55 | 1010.7 |
| 20260503044547 | 49 | 0 | 0.0 | 5.0 | 0.00 | 0.04 | 0.00 | 55 | 1010.8 |
| 20260503043046 | 49 | 0 | 0.0 | 3.0 | 0.00 | 0.04 | 0.00 | 54 | 1010.9 |
| 20260503041549 | 50 | 0 | 0.0 | 1.0 | 0.00 | 0.04 | 0.00 | 54 | 1010.8 |
| 20260503040059 | 50 | 0 | 0.0 | 6.0 | 0.00 | 0.04 | 0.00 | 53 | 1011.0 |
| 20260503034541 | 50 | 0 | 0.0 | 4.0 | 0.00 | 0.04 | 0.04 | 52 | 1010.9 |
| 20260503033041 | 51 | 0 | 0.0 | 6.0 | 0.00 | 0.04 | 0.04 | 50 | 1010.8 |
| 20260503031600 | 51 | 0 | 0.0 | 1.0 | 0.00 | 0.04 | 0.04 | 47 | 1010.8 |
| 20260503030050 | 51 | 0 | 0.0 | 3.0 | 0.00 | 0.04 | 0.04 | 47 | 1010.6 |
| 20260503024542 | 51 | 0 | 0.0 | 1.0 | 0.00 | 0.04 | 0.04 | 48 | 1010.7 |
| 20260503023051 | 51 | 0 | 0.0 | 0.0 | 0.00 | 0.04 | 0.04 | 48 | 1010.7 |
| 20260503021546 | 52 | 0 | 0.0 | 0.0 | 0.00 | 0.04 | 0.04 | 48 | 1011.0 |
| 20260503020049 | 52 | 0 | 0.0 | 0.0 | 0.00 | 0.04 | 0.04 | 49 | 1011.1 |
| 20260503014604 | 52 | 0 | 0.0 | 0.0 | 0.00 | 0.04 | 0.04 | 48 | 1011.1 |
| 20260503013046 | 53 | 0 | 0.0 | 1.0 | 0.00 | 0.04 | 0.04 | 48 | 1011.0 |
| 20260503011554 | 53 | 0 | 0.0 | 1.0 | 0.00 | 0.04 | 0.04 | 47 | 1010.8 |
| 20260503010047 | 53 | 0 | 0.0 | 0.0 | 0.00 | 0.04 | 0.04 | 47 | 1010.6 |
| 20260503004547 | 53 | 0 | 0.0 | 1.0 | 0.00 | 0.04 | 0.04 | 46 | 1010.4 |
| 20260503003059 | 54 | 0 | 0.0 | 0.0 | 0.00 | 0.04 | 0.04 | 47 | 1010.6 |
| 20260503001555 | 54 | 0 | 0.0 | 0.0 | 0.00 | 0.04 | 0.04 | 46 | 1010.3 |
| 20260503000048 | 54 | 0 | 0.0 | 1.0 | 0.00 | 0.04 | 0.04 | 45 | 1010.3 |
| 20260502234551 | 55 | 0 | 0.0 | 1.0 | 0.00 | 0.04 | 0.04 | 45 | 1010.2 |
| 20260502233049 | 55 | 0 | 0.0 | 3.0 | 0.00 | 0.04 | 0.04 | 44 | 1010.0 |